Location: Beulah
(33.1426°N, 83.0557°W)
Time: 06:18:11
(UTC+00:00)

N. Korean satellite - Visible Passes

Search period start: 28 November 2021 00:00
Search period end: 08 December 2021 00:00
Orbit: 447 x 495 km, 97.3° (Epoch: 27 November)

Date Brightness Start Highest point End Pass type
(mag) Time Alt. Az. Time Alt. Az. Time Alt. Az.
28 Nov 6.3 10:55:09 10° N 10:58:30 58° WNW 11:01:48 10° SSW visible
28 Nov 9.8 22:59:07 10° SW 23:01:21 16° W 23:03:36 10° NW visible
29 Nov 7.4 10:26:47 10° NNE 10:30:03 46° E 10:33:18 10° S visible
30 Nov 9.3 09:59:10 10° NE 10:01:31 18° E 10:03:51 10° SE visible
30 Nov 7.9 11:32:17 10° NNW 11:34:33 17° WNW 11:36:49 10° WSW visible
01 Dec 6.7 11:03:00 10° N 11:06:14 43° WNW 11:09:26 10° SSW visible
01 Dec 10.0 23:07:42 10° WSW 23:09:10 12° W 23:10:39 10° WNW visible
02 Dec 6.8 10:34:27 10° NNE 10:37:48 63° E 10:41:08 10° S visible
03 Dec 8.9 10:06:32 10° NE 10:09:16 22° E 10:11:58 10° SSE visible
03 Dec 8.2 11:40:28 10° NW 11:42:12 13° WNW 11:43:56 10° WSW visible
04 Dec 7.0 11:10:49 10° N 11:13:53 33° WNW 11:16:56 10° SW visible
05 Dec 6.3 10:42:04 10° NNE 10:45:27 85° ESE 10:48:50 10° S visible
06 Dec 8.4 10:13:56 10° NE 10:16:55 29° E 10:19:54 10° SSE visible
06 Dec 8.4 11:49:01 10° NW 11:49:46 11° WNW 11:50:32 10° W visible
07 Dec 9.8 09:47:01 10° ENE 09:48:16 12° E 09:49:31 10° ESE visible
07 Dec 7.4 11:18:37 10° NNW 11:21:28 25° WNW 11:24:18 10° SW visible
